sat.trackr.live / text

‹ back to catalog

STARLINK-30410

NORAD 57841 · 2023-141B

PAYLOAD ACTIVE UNKNOWN

§ Identity

Operator
Country
US
Launch date
2023-09-12
Launch site
AFWTR
Launch vehicle
Mass (kg)
RCS (m²)

Purposes: comms

External: N2YO · Heavens-Above · Gunter

§ Orbital elements

Epoch: 2026-05-25T03:13:50.378304Z

Period
94.01 min
Inclination
53.1610°
Eccentricity
0.0001219
Mean motion
15.31705107 rev/d
Perigee alt
469.9 km
Apogee alt
471.6 km
Semi-major
6,848.9 km
B*
5.6260e-5
RAAN
288.7391°
Arg perigee
83.7432°
Mean anomaly
276.3709°
Rev number
15,203

§ Raw data

STARLINK-304101 57841U 23141B   26145.13461086  .00001381  00000+0  56260-4 0  99982 57841  53.1610 288.7391 0001219  83.7432 276.3709 15.31705107152036

JSON: /api/v1/satellites/57841 · /tle

For live sub-satellite position, see the globe view (requires WebGL).

§ Visibility from observer

Set your observer location to see the next 7 days of passes ≥ 10°. The values pass through the URL so the page stays shareable.

No JS? Fill the form by hand. The geolocation button needs JavaScript.